[[{"header":{"parameterUnit":"m.s-1","parameterCategory":1,"la1":30.2991,"la2":30.254,"lo1":-89.0895,"lo2":-89.0444,"dy":0.0017,"dx":0.0017,"nx":28,"ny":28,"refTime":"2024-06-14T09:00:00:Z","depth":0,"parameterNumber":2,"parameterNumberName":"U-component_of_WINDS"},"data":[0,0,0,0,0,0,0,0,0,0,0,0,0,0,0,0,0,0,0,0,0,0,0,0,0,0,0,0,0,0,0,0,0,0,0,0,0,0,0,0,0,0,0,0,0,0,0,0,0,0,0,0,0,0,0,0,0,0,0.5146,0.5146,0,0.5134,0.5134,0.5133,0.5138,0.5138,0.5138,0.5138,0.5124,0.5123,0.5122,0,0,0,0,0,0,0,0,0,0,0,0,0,0.5172,0.5171,0.5146,0.5146,0.5146,0.5134,0.5134,0.5133,0.5137,0.5138,0.5138,0.5138,0.5124,0.5123,0.5122,0,0,0,0,0,0,0,0,0,0,0,0,0,0.516,0.5171,0.5146,0.5146,0.5146,0.5134,0.5134,0.5133,0.5137,0.5138,0.5138,0.5139,0.5124,0.5123,0.5122,0.5108,0,0,0.5119,0.5119,0,0,0,0,0,0,0,0,0.5161,0.5159,0.5147,0.5146,0.5146,0.5138,0.5137,0.5125,0.5137,0.5141,0.5138,0.5139,0.5128,0.5127,0.5123,0.5107,0.5107,0.5119,0.5119,0.5118,0.5118,0,0,0,0,0,0,0,0.5161,0.516,0.5141,0.5146,0.5146,0.5147,0.5145,0.5135,0.5132,0.514,0.5141,0.5139,0.5128,0.5124,0.5123,0.5106,0.5119,0.5118,0.5118,0.5117,0.5078,0.5077,0,0,0,0,0,0,0.5163,0.516,0.5141,0.5141,0.5155,0.5146,0.5145,0.514,0.5132,0.5131,0.5139,0.514,0.5126,0.5124,0.5123,0.5105,0.5118,0.5117,0.5117,0.5078,0.5078,0.5077,0,0,0,0,0,0,0.5163,0.5161,0.5142,0.5151,0.5148,0.5145,0.514,0.5139,0.5136,0.5131,0.513,0.5136,0.5126,0.5124,0.5112,0.5104,0.5117,0.5116,0.5079,0.5078,0.5077,0.5069,0,0,0,0,0,0,0.5164,0.5161,0.5156,0.515,0.5148,0.5132,0.5139,0.5139,0.5134,0.5135,0.5128,0.5127,0.5126,0.5113,0.5111,0.5103,0.5115,0.5079,0.5078,0.5078,0.507,0.5068,0.5067,0,0,0,0,0,0.5165,0.5154,0.5156,0.5153,0.5141,0.5131,0.513,0.5129,0.5134,0.5128,0.5125,0.5127,0.5106,0.5112,0.5109,0.5101,0.508,0.5079,0.5078,0.5071,0.5069,0.5067,0,0,0,0,0,0,0.5158,0.5153,0.5155,0.5142,0.5137,0.5132,0.5125,0.5127,0.512,0.5121,0.512,0.5118,0.5106,0.5102,0.5109,0.5087,0.5093,0.5092,0.5089,0.5087,0.5086,0.5086,0.5114,0,0,0,0,0,0.5155,0.5148,0.5144,0.5133,0.513,0.5128,0.5124,0.5124,0.5118,0.5116,0.5112,0.5106,0.5098,0.5093,0.5085,0.507,0.5068,0.5064,0.5062,0.5061,0.5059,0.505,0.5048,0.5074,0.5074,0.5074,0,0,0.5148,0.5145,0.514,0.5131,0.5127,0.5119,0.5126,0.5118,0.5111,0.5115,0.5103,0.51,0.5093,0.5079,0.5073,0.5076,0.5051,0.5059,0.5058,0.5057,0.5049,0.5046,0.5044,0.5073,0.5073,0.5073,0,0,0.5132,0.513,0.512,0.5116,0.511,0.5109,0.5107,0.5102,0.51,0.5088,0.5091,0.5083,0.5069,0.5064,0.506,0.5043,0.5044,0.504,0.5031,0.5023,0.5021,0.5019,0.5012,0.5009,0.5039,0.5039,0.5039,0,0.5125,0.5113,0.5114,0.5105,0.5101,0.5105,0.5095,0.5091,0.5082,0.5079,0.5083,0.5066,0.5061,0.5046,0.5042,0.5039,0.5036,0.504,0.5021,0.5019,0.5017,0.5011,0.5008,0.5038,0.5038,0.5038,0.5038,0,0.5104,0.5096,0.5089,0.5081,0.5076,0.5067,0.5066,0.5061,0.5062,0.506,0.5048,0.5043,0.5034,0.5031,0.5031,0.5016,0.5018,0.5021,0.5028,0.5014,0.5008,0.5005,0.5037,0.5038,0.5038,0.5038,0,0,0.5082,0.5076,0.5073,0.507,0.5064,0.5058,0.5048,0.504,0.5036,0.503,0.5021,0.501,0.5013,0.5008,0.5009,0.5001,0.4987,0.5006,0.5006,0.5002,0.4969,0.4965,0.4962,0.4989,0.4988,0.4988,0.4969,0,0.5065,0.5049,0.5049,0.5034,0.5026,0.503,0.5022,0.5017,0.5015,0.5008,0.5006,0.4997,0.5003,0.5,0.4993,0.499,0.498,0.4992,0.4979,0.4979,0.498,0.4959,0.4955,0.4937,0.4966,0.4966,0.4966,0,0.5042,0.5036,0.502,0.5016,0.5013,0.5005,0.4998,0.4991,0.4986,0.4985,0.498,0.4981,0.4971,0.4979,0.4964,0.4972,0.4967,0.4965,0.4965,0.4962,0.4971,0.4955,0.4932,0.4928,0.4962,0.4962,0.4962,0,0.5026,0.5015,0.5004,0.5001,0.4996,0.499,0.4988,0.4983,0.4978,0.4972,0.4968,0.4961,0.4956,0.495,0.4949,0.4955,0.4934,0.4942,0.4932,0.4932,0.4926,0.4926,0.4901,0.4925,0.4926,0.4926,0.4926,0,0.5006,0.4996,0.4996,0.4989,0.4978,0.4979,0.4968,0.4966,0.4961,0.4953,0.4957,0.4949,0.4949,0.4941,0.494,0.4928,0.4926,0.4924,0.4924,0.4923,0.4923,0.4919,0.492,0.4925,0.4925,0.4925,0.4925,0,0.4986,0.4986,0.4974,0.497,0.4969,0.4961,0.4958,0.495,0.495,0.494,0.4937,0.4935,0.4926,0.4925,0.4914,0.4914,0.4898,0.49,0.49,0.49,0.489,0.489,0.4859,0.4855,0.4884,0.4884,0.4883,0,0.4972,0.4965,0.496,0.4956,0.4953,0.4946,0.4941,0.4942,0.4937,0.4931,0.4924,0.4916,0.4908,0.4894,0.4891,0.4882,0.4883,0.4873,0.4882,0.4881,0.4881,0.4881,0.488,0.4871,0.487,0.487,0.487,0,0.4948,0.4948,0.4942,0.4935,0.493,0.4925,0.492,0.4915,0.4916,0.491,0.4901,0.4896,0.4885,0.4876,0.4868,0.4865,0.4867,0.4867,0.4865,0.4863,0.4863,0.4862,0.4894,0.4868,0.4868,0.4868,0.4868,0.4868,0.4929,0.4923,0.4919,0.4911,0.4908,0.4904,0.4897,0.4895,0.4888,0.488,0.4881,0.4871,0.4866,0.4855,0.4852,0.4843,0.4846,0.4842,0.4841,0.484,0.4838,0.4866,0.4842,0.4842,0.4842,0.4842,0.4842,0,0.4904,0.4902,0.4895,0.4889,0.4883,0.4887,0.4882,0.4876,0.4867,0.4863,0.4856,0.4846,0.4837,0.4834,0.4826,0.482,0.482,0.4817,0.4817,0.4816,0.4836,0.4839,0.4817,0.4817,0.4817,0.4817,0.4817,0.4817,0.489,0.4879,0.4879,0.4866,0.4863,0.4854,0.4851,0.4846,0.4843,0.4831,0.4824,0.4823,0.4819,0.481,0.4802,0.4801,0.4797,0.4794,0.4793,0.4812,0.4815,0.4817,0.4819,0.4793,0.4793,0.4773,0.4773,0.4773]},{"header":{"parameterUnit":"m.s-1","parameterCategory":1,"la1":30.2991,"la2":30.254,"lo1":-89.0895,"lo2":-89.0444,"dy":0.0017,"dx":0.0017,"nx":28,"ny":28,"refTime":"2024-06-14T09:00:00:Z","depth":0,"parameterNumber":3,"parameterNumberName":"V-component_of_WINDS"},"data":[0,0,0,0,0,0,0,0,0,0,0,0,0,0,0,0,0,0,0,0,0,0,0,0,0,0,0,0,0,0,0,0,0,0,0,0,0,0,0,0,0,0,0,0,0,0,0,0,0,0,0,0,0,0,0,0,0,0,0.465,0.465,0,0.4646,0.4646,0.4646,0.4628,0.4627,0.4627,0.4627,0.4621,0.4621,0.4621,0,0,0,0,0,0,0,0,0,0,0,0,0,0.4642,0.4642,0.465,0.465,0.465,0.4646,0.4646,0.4646,0.4628,0.4627,0.4627,0.4626,0.4621,0.4621,0.4621,0,0,0,0,0,0,0,0,0,0,0,0,0,0.4642,0.4642,0.465,0.4641,0.464,0.4646,0.4646,0.4646,0.4628,0.4627,0.4627,0.4626,0.4621,0.4621,0.4621,0.4636,0,0,0.4623,0.4623,0,0,0,0,0,0,0,0,0.4642,0.4643,0.4642,0.4642,0.4641,0.4637,0.4641,0.4642,0.4628,0.4633,0.4627,0.4626,0.4627,0.4626,0.4627,0.4635,0.4635,0.4623,0.4623,0.4623,0.4623,0,0,0,0,0,0,0,0.4642,0.4643,0.4648,0.4642,0.4641,0.4636,0.4636,0.4641,0.4633,0.4632,0.4631,0.4631,0.4626,0.4627,0.4627,0.4635,0.4623,0.4623,0.4623,0.4623,0.4653,0.4654,0,0,0,0,0,0,0.4644,0.4643,0.4649,0.4648,0.464,0.4637,0.4636,0.4639,0.4633,0.4631,0.4631,0.463,0.4626,0.4626,0.4626,0.4642,0.4623,0.4623,0.4623,0.4653,0.4653,0.4654,0,0,0,0,0,0,0.4644,0.4645,0.4649,0.4645,0.4645,0.4638,0.464,0.4639,0.4639,0.4632,0.4631,0.4633,0.4626,0.4626,0.4633,0.4641,0.4623,0.4624,0.4652,0.4653,0.4654,0.4673,0,0,0,0,0,0,0.4644,0.4645,0.4651,0.4646,0.4646,0.4656,0.4641,0.4639,0.464,0.4638,0.4634,0.4632,0.4625,0.4633,0.4634,0.4641,0.4624,0.4651,0.4652,0.4653,0.4671,0.4674,0.4677,0,0,0,0,0,0.4643,0.4656,0.4651,0.4652,0.4653,0.4657,0.4657,0.4649,0.4641,0.4646,0.4641,0.4633,0.464,0.4634,0.4634,0.4642,0.4651,0.4652,0.4653,0.467,0.4674,0.4677,0,0,0,0,0,0,0.4663,0.4656,0.465,0.4661,0.466,0.4654,0.4661,0.4653,0.4654,0.4652,0.4642,0.4641,0.4649,0.4646,0.4639,0.4655,0.4644,0.4645,0.4656,0.466,0.4662,0.4662,0.4624,0,0,0,0,0,0.4668,0.4672,0.4666,0.4677,0.4676,0.4669,0.467,0.4664,0.4662,0.4661,0.4657,0.4655,0.4656,0.4658,0.4659,0.4671,0.4669,0.4676,0.4679,0.4681,0.4683,0.4687,0.469,0.4658,0.4658,0.4658,0,0,0.468,0.4676,0.468,0.4681,0.4679,0.4682,0.4668,0.4673,0.4676,0.4662,0.4668,0.4665,0.4662,0.4671,0.4675,0.4669,0.4691,0.4683,0.4685,0.4685,0.4689,0.4692,0.4694,0.4659,0.4659,0.4659,0,0,0.4703,0.4701,0.4709,0.4708,0.4705,0.4699,0.4701,0.4696,0.4694,0.47,0.4689,0.4691,0.4695,0.4693,0.4692,0.4713,0.4704,0.4714,0.4727,0.4731,0.4734,0.4736,0.4742,0.4745,0.4715,0.4715,0.4715,0,0.4717,0.4723,0.4715,0.472,0.472,0.4707,0.4715,0.4714,0.4711,0.4711,0.4705,0.4708,0.4705,0.4713,0.4718,0.4718,0.4719,0.4714,0.4734,0.4736,0.4738,0.4744,0.4747,0.4716,0.4716,0.4716,0.4716,0,0.4741,0.4745,0.4752,0.475,0.4751,0.4757,0.4749,0.4751,0.4744,0.4739,0.4745,0.474,0.474,0.4742,0.4735,0.4748,0.4744,0.4736,0.4725,0.4743,0.4748,0.475,0.4718,0.4717,0.4717,0.4717,0,0,0.4777,0.4769,0.4771,0.477,0.4765,0.4768,0.4773,0.4773,0.4774,0.4772,0.4776,0.4779,0.4771,0.477,0.4763,0.4767,0.4782,0.4759,0.4758,0.4762,0.4794,0.48,0.4803,0.4777,0.4777,0.4777,0.4794,0,0.4798,0.4807,0.4798,0.4809,0.4812,0.4799,0.4803,0.4801,0.4796,0.4797,0.4791,0.4793,0.4783,0.4782,0.4786,0.478,0.4788,0.4778,0.4779,0.4779,0.478,0.4806,0.4812,0.4829,0.4796,0.4797,0.4797,0,0.4824,0.4823,0.4834,0.4827,0.4828,0.4833,0.4831,0.4832,0.4828,0.4824,0.4823,0.4814,0.4818,0.4807,0.4811,0.4805,0.4804,0.4801,0.4802,0.4801,0.4789,0.4805,0.4834,0.4836,0.48,0.48,0.48,0,0.4848,0.4849,0.4856,0.4855,0.4847,0.485,0.4847,0.4843,0.4843,0.4841,0.484,0.4839,0.4838,0.4837,0.4828,0.4821,0.4833,0.4822,0.4829,0.4829,0.4832,0.4832,0.486,0.4833,0.4833,0.4833,0.4833,0,0.4872,0.4879,0.4866,0.487,0.4877,0.4866,0.4873,0.4869,0.4865,0.4867,0.4855,0.4857,0.4846,0.4846,0.4839,0.4843,0.4843,0.4839,0.4837,0.484,0.484,0.4839,0.4837,0.4833,0.4833,0.4833,0.4833,0,0.49,0.4892,0.4897,0.489,0.4888,0.4893,0.4886,0.4889,0.4883,0.4885,0.4885,0.4875,0.4875,0.4866,0.4864,0.4859,0.4866,0.4862,0.4867,0.4866,0.4873,0.4872,0.4901,0.4904,0.4876,0.4876,0.4876,0,0.4915,0.492,0.4913,0.4913,0.4911,0.4912,0.4912,0.4901,0.4901,0.4896,0.4899,0.4898,0.4896,0.4896,0.4889,0.4887,0.4882,0.4892,0.4882,0.4884,0.4881,0.4881,0.4881,0.4895,0.4895,0.4895,0.4896,0,0.4944,0.4939,0.4939,0.4938,0.4937,0.4935,0.4933,0.4934,0.4922,0.4922,0.4922,0.4921,0.4918,0.4917,0.4913,0.4909,0.49,0.4899,0.49,0.4903,0.4906,0.4903,0.4873,0.4898,0.4898,0.4898,0.4898,0.4898,0.4966,0.4969,0.4964,0.4963,0.496,0.4958,0.4959,0.4953,0.4953,0.495,0.4944,0.4944,0.4938,0.4932,0.4929,0.4929,0.4923,0.4926,0.4926,0.4927,0.4928,0.4906,0.4928,0.4928,0.4928,0.4928,0.4928,0,0.4993,0.4988,0.4989,0.4985,0.4984,0.4976,0.4972,0.4972,0.4973,0.4968,0.4967,0.4966,0.4964,0.4956,0.4953,0.4954,0.4949,0.4953,0.4953,0.4952,0.4933,0.4932,0.4957,0.4957,0.4957,0.4957,0.4957,0.4957,0.5007,0.5011,0.5006,0.5008,0.5004,0.5004,0.5002,0.4999,0.4996,0.4995,0.4993,0.4988,0.4982,0.4978,0.4976,0.4973,0.4972,0.4977,0.4973,0.4956,0.4953,0.4951,0.4949,0.4977,0.4977,0.4992,0.4992,0.4992]}]]